Log in Register

Login to your account

Username *
Password *
Remember Me

Create an account

Fields marked with an asterisk (*) are required.
Name *
Username *
Password *
Verify password *
Email *
Verify email *

Nous contacter

 Téléphone : +33 (0)4 79 54 41 81

Coordonnées détaillées et accès : cliquez ici

 
LFLB °C
    Ferienhaus Ostsee
[source: ADDS]
METAR
LFLB 071430Z AUTO VRB02KT 9999 FEW054 BKN072 16/07 Q1018 NOSIG =
TAF LFLB 071400Z 0715/0815 03008KT 9999 BKN050 BECMG 0716/0718 CAVOK BECMG 0718/0720 VRB02KT
TAF
TAF LFLB 071400Z 0715/0815 03008KT 9999 BKN050 BECMG 0716/0718 CAVOK BECMG 0718/0720 VRB02KT =
SR / SS: 04:15 / 18:51 UTC (Lever/Coucher du soleil le 2021-05-07)
JSN Boot template designed by JoomlaShine.com